Showing default

COSMOS 1876, 18335

Orbit data source: Space-Track

COSMOS 1876, 18335 is a payload satellite owned by UNKS (CIS) in LEO that was launched on Mon, 07 Sep 1987 UTC via a TSIKLON-3 launch vehicle from the Plesetsk Missile And Space Complex (PKMTR). Payload-class satellites include a variety of spacecraft equipped with specific instruments for various scientific and technological missions. These include communications satellites like Starlink; space stations such as the ISS; scientific satellites like the Hubble; Earth observation satellites from companies like Planet Labs, Umbra, and HawkEye 360; GPS; miniature CubeSats for education and research; and military/defense satellites.

Loading next visibility...
Identifier
18335, 1987-074B
Orbit
LEO
Country
Flag of CISCIS
Related business
Manufacturer
NPO PM
Mission
Defense Communications
Bus & Motor
STRELA-3, Unknown motor
Mass
225 kg wet, 225 kg dry
Launch date (UTC)
1987-09-07 (38 years ago)
Launch vehicle
TSIKLON-3
Launch site
Plesetsk Missile And Space Complex (PKMTR)
Object type
Payload
Rocket body
Debris
Shape & HBR
Cyl, 0.8 m
Radar Cross Section
1.257 m², Large (>1 m²)

Expand to show TLE details & history
Last TLE update: 10 hours ago

TLE from 10 hours ago
0 COSMOS 1876
1 18335U 87074B   26061.65244414  .00000015  00000-0  27186-4 0  9995
2 18335  82.5743  30.9285 0005482  13.6986 159.6194 12.62812729773642
Epoch: 2026-03-02T15:39Z
TLE epoch observation values (Epoch: 2026-03-02T15:39:31.173Z)
Latitude
6.53317°
Longitude
174.75482°
Altitude
1,417.483 km
Speed
7.151 km/s
True Right ascension
14h 00m 18s
True Declination
6° 29' 52"
Sunlit
Object was in full shadow at epoch
Visualization orbit readout
Latitude
Unknown
Longitude
Unknown
Altitude
Unknown
Speed
Unknown
Apparent Right ascension
Unknown
Apparent Declination
Unknown
Sunlit
N/A
Visualization observer readout
Local Sidereal Time
05:20:01
Azimuth
Unknown
Elevation
Unknown
Doppler factor
Unknown
Orbital elements
Apogee altitude
1,412.945 km
Perigee altitude
1,404.408 km
Semi-major axis
7,786.813 km
Eccentricity
0.00055
Inclination
82.5743°
RAAN
30.9285°
Arg. of periapsis
13.6986°
True anomaly
159.64126°
Mean anomaly
159.6194°
Eccentric anomaly
159.63033°
Mean motion
3.15866 °/min
Orbital period
113.97 mins
BSTAR
0.000027186
Loading maneuver chart data...
Computing Atmospheric mass density...
Loading historical data...
Loading historical data...
Loading historical data...
Loading historical data...
Loading historical data...
Loading historical data...
Loading historical data...

Documentation

Showing up to 5 results
|